START_TIME,STEP,MOV.,H8,t_acc.,H43,t_acc.,M25,t_acc.,H9,t_acc.
1979-07-04 06:00:30.320 ,0,1,0.,12.0,0.,12.0,0.,12.0,0.,12.0
1979-07-04 06:00:42.320 ,0,1,0.,12.0,0.,12.0,0.,12.0,0.,12.0
1979-07-04 06:00:54.320 ,4,1,0.,12.0,0.,12.0,0.,12.0,0.,12.0
1979-07-04 06:01:06.320 ,4,1,0.,12.0,0.,12.0,0.,12.0,0.,12.0
1979-07-04 06:01:18.320 ,7,1,0.,12.0,0.,12.0,0.,12.0,0.,12.0
1979-07-04 06:01:30.320 ,7,1,0.,12.0,0.,12.0,0.,12.0,0.,12.0
1979-07-04 06:01:42.320 ,3,1,0.,12.0,0.,12.0,0.,12.0,0.,12.0
1979-07-04 06:01:54.320 ,3,1,0.,12.0,0.,12.0,0.,12.0,0.,12.0
1979-07-04 06:02:06.320 ,0,1,0.,12.0,0.,12.0,0.,12.0,0.,12.0
1979-07-04 06:02:18.320 ,0,1,0.,12.0,0.,12.0,0.,12.0,0.,12.0
1979-07-04 06:02:30.320 ,4,1,0.,12.0,0.,12.0,0.,12.0,0.,12.0
1979-07-04 06:02:42.320 ,4,1,0.,12.0,0.,12.0,0.,12.0,0.,12.0
1979-07-04 06:02:54.320 ,7,1,0.,12.0,0.,12.0,0.,12.0,0.,12.0
1979-07-04 06:03:06.320 ,7,1,0.,12.0,0.,12.0,0.,12.0,0.,12.0
1979-07-04 06:03:18.320 ,3,1,0.,12.0,0.,12.0,0.,12.0,0.,12.0
1979-07-04 06:03:30.320 ,3,1,0.,12.0,0.,12.0,0.,12.0,0.,12.0
1979-07-04 06:03:42.320 ,0,1,0.,12.0,0.,12.0,0.,12.0,0.,12.0
1979-07-04 06:03:54.320 ,0,1,0.,12.0,0.,12.0,0.,12.0,0.,12.0
1979-07-04 06:04:06.320 ,4,1,0.,12.0,0.,12.0,0.,12.0,0.,12.0
1979-07-04 06:04:18.320 ,4,1,0.,12.0,0.,12.0,0.,12.0,0.,12.0
1979-07-04 06:04:30.320 ,7,1,0.,12.0,0.,12.0,0.,12.0,0.,12.0
1979-07-04 06:04:42.320 ,7,1,0.,12.0,0.,12.0,0.,12.0,0.,12.0
1979-07-04 06:04:54.320 ,3,1,0.,12.0,0.,12.0,0.,12.0,0.,12.0
1979-07-04 06:05:06.320 ,3,1,0.,12.0,0.,12.0,0.,12.0,0.,12.0
1979-07-04 06:05:18.320 ,0,1,0.,12.0,0.,12.0,0.,12.0,0.,12.0
1979-07-04 06:05:30.320 ,0,1,0.,12.0,0.,12.0,0.,12.0,0.,12.0
1979-07-04 06:05:42.320 ,0,0,0.,12.0,0.,12.0,0.,12.0,0.,12.0
1979-07-04 06:05:54.320 ,0,0,0.,12.0,0.,12.0,0.,12.0,0.,12.0
1979-07-04 06:06:06.320 ,0,0,0.,12.0,0.,12.0,0.,12.0,0.,12.0
1979-07-04 06:06:18.320 ,0,0,0.,12.0,0.,12.0,0.,12.0,0.,12.0
1979-07-04 06:06:30.320 ,5,0,0.,12.0,0.,12.0,0.,12.0,0.,12.0
1979-07-04 06:06:42.320 ,5,0,0.,12.0,0.,12.0,0.,12.0,0.,12.0
1979-07-04 06:06:54.320 ,5,0,0.,12.0,0.,12.0,0.,12.0,0.,12.0
1979-07-04 06:07:06.320 ,5,0,0.,12.0,0.,12.0,0.,12.0,0.,12.0
1979-07-04 06:07:18.320 ,4,0,0.,12.0,0.,12.0,0.,12.0,0.,12.0
1979-07-04 06:07:30.320 ,4,0,0.,12.0,0.,12.0,0.,12.0,0.,12.0
1979-07-04 06:07:42.320 ,4,0,0.,12.0,0.,12.0,0.,12.0,0.,12.0
1979-07-04 06:07:54.320 ,4,0,0.,12.0,0.,12.0,0.,12.0,0.,12.0
1979-07-04 06:08:06.320 ,3,0,0.,12.0,0.,12.0,0.,12.0,0.,12.0
1979-07-04 06:08:18.320 ,3,0,0.,12.0,0.,12.0,0.,12.0,0.,12.0
1979-07-04 06:08:30.320 ,0,0,0.,12.0,0.,12.0,0.,12.0,0.,12.0
1979-07-04 06:08:42.320 ,0,0,0.,12.0,0.,12.0,0.,12.0,0.,12.0
1979-07-04 06:08:57.920 ,0,0,0.,12.0,0.,12.0,0.,12.0,0.,12.0
1979-07-04 06:09:09.920 ,0,0,0.,12.0,0.,12.0,0.,12.0,0.,12.0
1979-07-04 06:09:18.320 ,0,0,0.,12.0,0.,12.0,0.,12.0,0.,12.0
1979-07-04 06:09:30.320 ,0,0,0.,12.0,0.,12.0,0.,12.0,0.,12.0
1979-07-04 06:09:42.320 ,1,0,0.,12.0,0.,12.0,0.,12.0,0.,12.0
1979-07-04 06:09:54.320 ,1,0,0.,12.0,0.,12.0,0.,12.0,0.,12.0
1979-07-04 06:10:06.320 ,1,0,0.,12.0,0.,12.0,0.,12.0,0.,12.0
1979-07-04 06:10:18.320 ,1,0,0.,12.0,0.,12.0,0.,12.0,0.,12.0
1979-07-04 06:10:30.320 ,0,0,0.,12.0,0.,12.0,0.,12.0,0.,12.0
1979-07-04 06:10:42.320 ,0,0,0.,12.0,0.,12.0,0.,12.0,0.,12.0
1979-07-04 06:10:54.320 ,0,0,0.,12.0,0.,12.0,0.,12.0,0.,12.0
1979-07-04 06:11:06.320 ,0,0,0.,12.0,0.,12.0,0.,12.0,0.,12.0
1979-07-04 06:11:18.320 ,0,0,0.,12.0,0.,12.0,0.,12.0,0.,12.0
1979-07-04 06:11:30.320 ,0,0,0.,12.0,0.,12.0,0.,12.0,0.,12.0
1979-07-04 06:11:42.320 ,0,0,0.,12.0,0.,12.0,0.,12.0,0.,12.0
1979-07-04 06:11:54.320 ,0,0,0.,12.0,0.,12.0,0.,12.0,0.,12.0
1979-07-04 06:12:06.320 ,1,0,0.,12.0,0.,12.0,0.,12.0,0.,12.0
1979-07-04 06:12:18.320 ,1,0,0.,12.0,0.,12.0,0.,12.0,0.,12.0
1979-07-04 06:12:30.320 ,1,0,0.,12.0,0.,12.0,0.,12.0,0.,12.0
1979-07-04 06:12:42.320 ,1,0,0.,12.0,0.,12.0,0.,12.0,0.,12.0
1979-07-04 06:12:54.320 ,2,0,0.,12.0,0.,12.0,0.,12.0,0.,12.0
1979-07-04 06:13:06.320 ,2,0,0.,12.0,0.,12.0,0.,12.0,0.,12.0
1979-07-04 06:13:18.320 ,2,0,0.,12.0,0.,12.0,0.,12.0,0.,12.0
1979-07-04 06:13:30.320 ,2,0,0.,12.0,0.,12.0,0.,12.0,0.,12.0
1979-07-04 06:13:42.320 ,3,0,0.,12.0,0.,12.0,0.,12.0,0.,12.0
1979-07-04 06:13:54.320 ,3,0,0.,12.0,0.,12.0,0.,12.0,0.,12.0
1979-07-04 06:14:06.320 ,3,0,0.,12.0,0.,12.0,0.,12.0,0.,12.0
1979-07-04 06:14:18.320 ,3,0,0.,12.0,0.,12.0,0.,12.0,0.,12.0
1979-07-04 06:14:30.320 ,4,0,0.,12.0,0.,12.0,0.,12.0,0.,12.0
1979-07-04 06:14:42.320 ,4,0,0.,12.0,0.,12.0,0.,12.0,0.,12.0
1979-07-04 06:14:54.320 ,4,0,0.,12.0,0.,12.0,0.,12.0,0.,12.0
1979-07-04 06:15:06.320 ,4,0,0.,12.0,0.,12.0,0.,12.0,0.,12.0
1979-07-04 06:15:18.320 ,5,0,0.,12.0,0.,12.0,0.,12.0,0.,12.0
1979-07-04 06:15:30.320 ,5,0,0.,12.0,0.,12.0,0.,12.0,0.,12.0
1979-07-04 06:15:42.320 ,5,0,0.,12.0,0.,12.0,0.,12.0,0.,12.0
1979-07-04 06:15:54.320 ,5,0,0.,12.0,0.,12.0,0.,12.0,0.,12.0
1979-07-04 06:16:06.320 ,6,0,0.,12.0,0.,12.0,0.,12.0,0.,12.0
1979-07-04 06:16:18.320 ,6,0,0.,12.0,0.,12.0,0.,12.0,0.,12.0
1979-07-04 06:16:30.320 ,6,0,0.,12.0,0.,12.0,0.,12.0,0.,12.0
1979-07-04 06:16:42.320 ,6,0,0.,12.0,0.,12.0,0.,12.0,0.,12.0
1979-07-04 06:16:54.320 ,7,0,0.,12.0,0.,12.0,0.,12.0,0.,12.0
1979-07-04 06:17:06.320 ,7,0,0.,12.0,0.,12.0,0.,12.0,0.,12.0
1979-07-04 06:17:18.320 ,7,0,0.,12.0,0.,12.0,0.,12.0,0.,12.0
1979-07-04 06:17:30.320 ,7,0,0.,12.0,0.,12.0,0.,12.0,0.,12.0
1979-07-04 06:17:42.320 ,7,0,0.,12.0,0.,12.0,0.,12.0,0.,12.0
1979-07-04 06:17:54.320 ,7,0,0.,12.0,0.,12.0,0.,12.0,0.,12.0
1979-07-04 06:18:06.320 ,7,0,0.,12.0,0.,12.0,0.,12.0,0.,12.0
1979-07-04 06:18:18.320 ,7,0,0.,12.0,0.,12.0,0.,12.0,0.,12.0
1979-07-04 06:18:30.320 ,6,0,0.,12.0,0.,12.0,0.,12.0,0.,12.0
1979-07-04 06:18:42.320 ,6,0,0.,12.0,0.,12.0,0.,12.0,0.,12.0
1979-07-04 06:18:54.320 ,6,0,0.,12.0,0.,12.0,0.,12.0,0.,12.0
1979-07-04 06:19:06.320 ,6,0,0.,12.0,0.,12.0,0.,12.0,0.,12.0
1979-07-04 06:19:18.320 ,5,0,0.,12.0,0.,12.0,0.,12.0,0.,12.0
1979-07-04 06:19:30.320 ,5,0,0.,12.0,0.,12.0,0.,12.0,0.,12.0
1979-07-04 06:19:42.320 ,5,0,0.,12.0,0.,12.0,0.,12.0,0.,12.0
1979-07-04 06:19:54.320 ,5,0,0.,12.0,0.,12.0,0.,12.0,0.,12.0
1979-07-04 06:20:06.320 ,4,0,0.,12.0,0.,12.0,0.,12.0,0.,12.0
1979-07-04 06:20:18.320 ,4,0,0.,12.0,0.,12.0,0.,12.0,0.,12.0
1979-07-04 06:20:30.320 ,4,0,0.,12.0,0.,12.0,0.,12.0,0.,12.0
1979-07-04 06:20:42.320 ,4,0,0.,12.0,0.,12.0,0.,12.0,0.,12.0
1979-07-04 06:20:54.320 ,3,0,0.,12.0,0.,12.0,0.,12.0,0.,12.0
1979-07-04 06:21:06.320 ,3,0,0.,12.0,0.,12.0,0.,12.0,0.,12.0
1979-07-04 06:21:18.320 ,3,0,0.,12.0,0.,12.0,0.,12.0,0.,12.0
1979-07-04 06:21:30.320 ,3,0,0.,12.0,0.,12.0,0.,12.0,0.,12.0
1979-07-04 06:21:42.320 ,2,0,0.,12.0,0.,12.0,0.,12.0,0.,12.0
1979-07-04 06:21:54.320 ,2,0,0.,12.0,0.,12.0,0.,12.0,0.,12.0
1979-07-04 06:22:06.320 ,2,0,0.,12.0,0.,12.0,0.,12.0,0.,12.0
1979-07-04 06:22:18.320 ,2,0,0.,12.0,0.,12.0,0.,12.0,0.,12.0
1979-07-04 06:22:30.320 ,1,0,0.,12.0,0.,12.0,0.,12.0,0.,12.0
1979-07-04 06:22:42.320 ,1,0,0.,12.0,0.,12.0,0.,12.0,0.,12.0
1979-07-04 06:22:54.320 ,1,0,0.,12.0,0.,12.0,0.,12.0,0.,12.0
1979-07-04 06:23:06.320 ,1,0,0.,12.0,0.,12.0,0.,12.0,0.,12.0
1979-07-04 06:23:18.320 ,0,0,0.,12.0,0.,12.0,0.,12.0,0.,12.0
1979-07-04 06:23:30.320 ,0,0,0.,12.0,0.,12.0,0.,12.0,0.,12.0
1979-07-04 06:23:42.320 ,0,0,0.,12.0,0.,12.0,0.,12.0,0.,12.0
1979-07-04 06:23:54.320 ,0,0,0.,12.0,0.,12.0,0.,12.0,0.,12.0
1979-07-04 06:24:06.320 ,0,0,0.,12.0,0.,12.0,0.,12.0,0.,12.0
1979-07-04 06:24:18.320 ,0,0,0.,12.0,0.,12.0,0.,12.0,0.,12.0
1979-07-04 06:24:30.320 ,0,0,0.,12.0,0.,12.0,0.,12.0,0.,12.0
1979-07-04 06:24:42.320 ,0,0,0.,12.0,0.,12.0,0.,12.0,0.,12.0
1979-07-04 06:24:54.320 ,1,0,0.,12.0,0.,12.0,0.,12.0,0.,12.0
1979-07-04 06:25:06.320 ,1,0,0.,12.0,0.,12.0,0.,12.0,0.,12.0
1979-07-04 06:25:18.320 ,1,0,1.,12.0,0.,12.0,0.,12.0,0.,12.0
1979-07-04 06:25:30.320 ,1,0,0.,12.0,0.,12.0,0.,12.0,0.,12.0
1979-07-04 06:25:42.320 ,2,0,0.,12.0,0.,12.0,0.,12.0,0.,12.0
1979-07-04 06:25:54.320 ,2,0,0.,12.0,0.,12.0,0.,12.0,0.,12.0
1979-07-04 06:26:06.320 ,2,0,0.,12.0,0.,12.0,0.,12.0,0.,12.0
1979-07-04 06:26:18.320 ,2,0,0.,12.0,0.,12.0,0.,12.0,0.,12.0
1979-07-04 06:26:30.320 ,3,0,0.,12.0,0.,12.0,0.,12.0,0.,12.0
1979-07-04 06:26:42.320 ,3,0,0.,12.0,0.,12.0,0.,12.0,0.,12.0
1979-07-04 06:26:54.320 ,3,0,0.,12.0,0.,12.0,0.,12.0,0.,12.0
1979-07-04 06:27:06.320 ,3,0,0.,12.0,0.,12.0,0.,12.0,0.,12.0
1979-07-04 06:27:18.320 ,4,0,0.,12.0,0.,12.0,0.,12.0,0.,12.0
1979-07-04 06:27:30.320 ,4,0,0.,12.0,0.,12.0,0.,12.0,0.,12.0
1979-07-04 06:27:42.320 ,4,0,0.,12.0,0.,12.0,0.,12.0,0.,12.0
1979-07-04 06:27:54.320 ,4,0,0.,12.0,0.,12.0,0.,12.0,0.,12.0
1979-07-04 06:28:06.320 ,5,0,0.,12.0,0.,12.0,0.,12.0,0.,12.0
1979-07-04 06:28:18.320 ,5,0,0.,12.0,0.,12.0,0.,12.0,0.,12.0
1979-07-04 06:28:30.320 ,5,0,0.,12.0,0.,12.0,0.,12.0,0.,12.0
1979-07-04 06:28:42.320 ,5,0,0.,12.0,0.,12.0,0.,12.0,0.,12.0
1979-07-04 06:28:54.320 ,6,0,0.,12.0,0.,12.0,0.,12.0,0.,12.0
1979-07-04 06:29:06.320 ,6,0,0.,12.0,0.,12.0,0.,12.0,0.,12.0
1979-07-04 06:29:18.320 ,6,0,0.,12.0,0.,12.0,0.,12.0,0.,12.0
1979-07-04 06:29:30.320 ,6,0,0.,12.0,0.,12.0,0.,12.0,0.,12.0
1979-07-04 06:29:42.320 ,7,0,0.,12.0,0.,12.0,0.,12.0,0.,12.0
1979-07-04 06:29:54.320 ,7,0,0.,12.0,0.,12.0,0.,12.0,0.,12.0
1979-07-04 06:30:06.320 ,7,0,0.,12.0,0.,12.0,0.,12.0,0.,12.0
1979-07-04 06:30:18.320 ,7,0,0.,12.0,0.,12.0,0.,12.0,0.,12.0
1979-07-04 06:30:30.320 ,7,0,0.,12.0,0.,12.0,0.,12.0,0.,12.0
1979-07-04 06:30:42.320 ,7,0,0.,12.0,0.,12.0,0.,12.0,0.,12.0
1979-07-04 06:30:54.320 ,7,0,0.,12.0,0.,12.0,0.,12.0,0.,12.0
1979-07-04 06:31:06.320 ,7,0,0.,12.0,0.,12.0,0.,12.0,0.,12.0
1979-07-04 06:31:18.320 ,6,0,0.,12.0,0.,12.0,0.,12.0,0.,12.0
1979-07-04 06:31:30.320 ,6,0,0.,12.0,0.,12.0,0.,12.0,0.,12.0
1979-07-04 06:31:42.320 ,6,0,0.,12.0,0.,12.0,0.,12.0,0.,12.0
1979-07-04 06:31:54.320 ,6,0,0.,12.0,0.,12.0,0.,12.0,0.,12.0
1979-07-04 06:32:06.320 ,5,0,0.,12.0,0.,12.0,0.,12.0,0.,12.0
1979-07-04 06:32:18.320 ,5,0,0.,12.0,0.,12.0,0.,12.0,0.,12.0
1979-07-04 06:32:30.320 ,5,0,0.,12.0,0.,12.0,0.,12.0,0.,12.0
1979-07-04 06:32:42.320 ,5,0,0.,12.0,0.,12.0,0.,12.0,0.,12.0
1979-07-04 06:32:54.320 ,4,0,0.,12.0,0.,12.0,0.,12.0,0.,12.0
1979-07-04 06:33:06.320 ,4,0,0.,12.0,0.,12.0,0.,12.0,0.,12.0
1979-07-04 06:33:18.320 ,4,0,0.,12.0,0.,12.0,0.,12.0,0.,12.0
1979-07-04 06:33:30.320 ,4,0,0.,12.0,0.,12.0,0.,12.0,0.,12.0
1979-07-04 06:33:42.320 ,3,0,0.,12.0,0.,12.0,0.,12.0,0.,12.0
1979-07-04 06:33:54.320 ,3,0,0.,12.0,0.,12.0,0.,12.0,0.,12.0
1979-07-04 06:34:06.320 ,3,0,0.,12.0,0.,12.0,0.,12.0,0.,12.0
1979-07-04 06:34:18.320 ,3,0,0.,12.0,0.,12.0,0.,12.0,0.,12.0
1979-07-04 06:34:30.320 ,2,0,0.,12.0,0.,12.0,0.,12.0,0.,12.0
1979-07-04 06:34:42.320 ,2,0,0.,12.0,0.,12.0,0.,12.0,0.,12.0
1979-07-04 06:34:54.320 ,2,0,0.,12.0,0.,12.0,0.,12.0,0.,12.0
1979-07-04 06:35:06.320 ,2,0,0.,12.0,0.,12.0,0.,12.0,0.,12.0
1979-07-04 06:35:18.320 ,1,0,0.,12.0,0.,12.0,0.,12.0,0.,12.0
1979-07-04 06:35:30.320 ,1,0,0.,12.0,0.,12.0,0.,12.0,0.,12.0
1979-07-04 06:35:42.320 ,1,0,0.,12.0,0.,12.0,0.,12.0,0.,12.0
1979-07-04 06:35:54.320 ,1,0,0.,12.0,0.,12.0,0.,12.0,0.,12.0
1979-07-04 06:36:06.320 ,0,0,0.,12.0,0.,12.0,0.,12.0,0.,12.0
1979-07-04 06:36:18.320 ,0,0,0.,12.0,0.,12.0,0.,12.0,0.,12.0
1979-07-04 06:36:30.320 ,0,0,0.,12.0,0.,12.0,0.,12.0,0.,12.0
1979-07-04 06:36:42.320 ,0,0,0.,12.0,0.,12.0,0.,12.0,0.,12.0
1979-07-04 06:36:54.320 ,0,0,0.,12.0,0.,12.0,0.,12.0,0.,12.0
1979-07-04 06:37:06.320 ,0,0,0.,12.0,0.,12.0,0.,12.0,0.,12.0
1979-07-04 06:37:18.320 ,0,0,0.,12.0,0.,12.0,0.,12.0,0.,12.0
1979-07-04 06:37:30.320 ,0,0,0.,12.0,0.,12.0,0.,12.0,0.,12.0
1979-07-04 06:37:42.320 ,1,0,0.,12.0,0.,12.0,0.,12.0,0.,12.0
1979-07-04 06:37:54.320 ,1,0,0.,12.0,0.,12.0,0.,12.0,0.,12.0
1979-07-04 06:38:06.320 ,1,0,0.,12.0,0.,12.0,0.,12.0,0.,12.0
1979-07-04 06:38:18.320 ,1,0,0.,12.0,0.,12.0,0.,12.0,0.,12.0
1979-07-04 06:38:30.320 ,2,0,0.,12.0,0.,12.0,0.,12.0,0.,12.0
1979-07-04 06:38:42.320 ,2,0,0.,12.0,0.,12.0,0.,12.0,0.,12.0
1979-07-04 06:38:54.320 ,2,0,0.,12.0,0.,12.0,0.,12.0,0.,12.0
1979-07-04 06:39:06.320 ,2,0,0.,12.0,0.,12.0,0.,12.0,0.,12.0
1979-07-04 06:39:18.320 ,3,0,0.,12.0,0.,12.0,0.,12.0,0.,12.0
1979-07-04 06:39:30.320 ,3,0,0.,12.0,0.,12.0,0.,12.0,0.,12.0
1979-07-04 06:39:42.320 ,3,0,0.,12.0,0.,12.0,0.,12.0,0.,12.0
1979-07-04 06:39:54.320 ,3,0,0.,12.0,0.,12.0,0.,12.0,0.,12.0
1979-07-04 06:40:06.320 ,4,0,0.,12.0,0.,12.0,0.,12.0,0.,12.0
1979-07-04 06:40:18.320 ,4,0,0.,12.0,0.,12.0,0.,12.0,0.,12.0
1979-07-04 06:40:30.320 ,4,0,0.,12.0,0.,12.0,0.,12.0,0.,12.0
1979-07-04 06:40:42.320 ,4,0,0.,12.0,0.,12.0,0.,12.0,0.,12.0
1979-07-04 06:40:54.320 ,5,0,0.,12.0,0.,12.0,0.,12.0,0.,12.0
1979-07-04 06:41:06.320 ,5,0,0.,12.0,0.,12.0,0.,12.0,0.,12.0
1979-07-04 06:41:18.320 ,5,0,0.,12.0,0.,12.0,0.,12.0,0.,12.0
1979-07-04 06:41:30.320 ,5,0,0.,12.0,0.,12.0,0.,12.0,0.,12.0
1979-07-04 06:41:42.320 ,6,0,0.,12.0,0.,12.0,0.,12.0,0.,12.0
1979-07-04 06:41:54.320 ,6,0,0.,12.0,0.,12.0,0.,12.0,0.,12.0
1979-07-04 06:42:06.320 ,6,0,0.,12.0,0.,12.0,0.,12.0,0.,12.0
1979-07-04 06:42:18.320 ,6,0,0.,12.0,0.,12.0,0.,12.0,0.,12.0
1979-07-04 06:42:30.320 ,7,0,0.,12.0,0.,12.0,0.,12.0,0.,12.0
1979-07-04 06:42:42.320 ,7,0,0.,12.0,0.,12.0,0.,12.0,0.,12.0
1979-07-04 06:42:54.320 ,7,0,0.,12.0,0.,12.0,0.,12.0,0.,12.0
1979-07-04 06:43:06.320 ,7,0,0.,12.0,0.,12.0,0.,12.0,0.,12.0
1979-07-04 06:43:18.320 ,3,1,0.,12.0,0.,12.0,0.,12.0,0.,12.0
1979-07-04 06:43:30.320 ,3,1,0.,12.0,0.,12.0,0.,12.0,0.,12.0
1979-07-04 06:43:42.320 ,0,1,0.,12.0,0.,12.0,0.,12.0,0.,12.0
1979-07-04 06:43:54.320 ,0,1,0.,12.0,0.,12.0,0.,12.0,0.,12.0
1979-07-04 06:44:06.320 ,4,1,0.,12.0,0.,12.0,0.,12.0,0.,12.0
1979-07-04 06:44:18.320 ,4,1,0.,12.0,0.,12.0,0.,12.0,0.,12.0
1979-07-04 06:44:30.320 ,7,1,0.,12.0,0.,12.0,0.,12.0,0.,12.0
1979-07-04 06:44:42.320 ,7,1,0.,12.0,0.,12.0,0.,12.0,0.,12.0
1979-07-04 06:44:54.320 ,3,1,0.,12.0,0.,12.0,0.,12.0,0.,12.0
1979-07-04 06:45:06.320 ,3,1,0.,12.0,0.,12.0,0.,12.0,0.,12.0
1979-07-04 06:45:18.320 ,0,1,0.,12.0,0.,12.0,0.,12.0,0.,12.0
1979-07-04 06:45:30.320 ,0,1,0.,12.0,0.,12.0,0.,12.0,0.,12.0
1979-07-04 06:45:42.320 ,4,1,0.,12.0,0.,12.0,0.,12.0,0.,12.0
1979-07-04 06:45:54.320 ,4,1,0.,12.0,0.,12.0,0.,12.0,0.,12.0
1979-07-04 06:46:06.320 ,7,1,0.,12.0,0.,12.0,0.,12.0,0.,12.0
1979-07-04 06:46:18.320 ,7,1,0.,12.0,0.,12.0,0.,12.0,0.,12.0
1979-07-04 06:46:30.320 ,3,1,0.,12.0,0.,12.0,0.,12.0,0.,12.0
1979-07-04 06:46:42.320 ,3,1,0.,12.0,0.,12.0,0.,12.0,0.,12.0
1979-07-04 06:46:54.320 ,0,1,0.,12.0,0.,12.0,0.,12.0,0.,12.0
1979-07-04 06:47:06.320 ,0,1,0.,12.0,0.,12.0,0.,12.0,0.,12.0
1979-07-04 06:47:18.320 ,4,1,0.,12.0,0.,12.0,0.,12.0,0.,12.0
1979-07-04 06:47:30.320 ,4,1,0.,12.0,0.,12.0,0.,12.0,0.,12.0
1979-07-04 06:47:42.320 ,7,1,0.,12.0,0.,12.0,0.,12.0,0.,12.0
1979-07-04 06:47:54.320 ,7,1,0.,12.0,0.,12.0,0.,12.0,0.,12.0
1979-07-04 06:48:06.320 ,3,1,0.,12.0,0.,12.0,0.,12.0,0.,12.0
1979-07-04 06:48:18.320 ,3,1,0.,12.0,0.,12.0,0.,12.0,0.,12.0
1979-07-04 06:48:30.320 ,0,1,0.,12.0,0.,12.0,0.,12.0,0.,12.0
1979-07-04 06:48:42.320 ,0,1,0.,12.0,0.,12.0,0.,12.0,0.,12.0
1979-07-04 06:48:54.320 ,4,1,0.,12.0,0.,12.0,0.,12.0,0.,12.0
1979-07-04 06:49:06.320 ,4,1,0.,12.0,1.,12.0,0.,12.0,0.,12.0
1979-07-04 06:49:18.320 ,7,1,0.,12.0,0.,12.0,0.,12.0,0.,12.0
1979-07-04 06:49:30.320 ,7,1,0.,12.0,0.,12.0,0.,12.0,0.,12.0
1979-07-04 06:49:42.320 ,3,1,0.,12.0,0.,12.0,0.,12.0,0.,12.0
1979-07-04 06:49:54.320 ,3,1,0.,12.0,0.,12.0,0.,12.0,0.,12.0
1979-07-04 06:50:06.320 ,0,1,0.,12.0,0.,12.0,0.,12.0,0.,12.0
1979-07-04 06:50:18.320 ,0,1,0.,12.0,0.,12.0,0.,12.0,0.,12.0
1979-07-04 06:50:30.320 ,4,1,0.,12.0,0.,12.0,0.,12.0,0.,12.0
1979-07-04 06:50:42.320 ,4,1,0.,12.0,0.,12.0,0.,12.0,0.,12.0
1979-07-04 06:50:54.320 ,7,1,0.,12.0,0.,12.0,0.,12.0,0.,12.0
1979-07-04 06:51:06.320 ,7,1,0.,12.0,0.,12.0,0.,12.0,0.,12.0
1979-07-04 06:51:18.320 ,3,1,0.,12.0,0.,12.0,0.,12.0,0.,12.0
1979-07-04 06:51:30.320 ,3,1,0.,12.0,0.,12.0,0.,12.0,0.,12.0
1979-07-04 06:51:42.320 ,0,1,0.,12.0,0.,12.0,0.,12.0,0.,12.0
1979-07-04 06:51:54.320 ,0,1,0.,12.0,0.,12.0,0.,12.0,0.,12.0
1979-07-04 06:52:06.320 ,4,1,0.,12.0,0.,12.0,0.,12.0,0.,12.0
1979-07-04 06:52:18.320 ,4,1,0.,12.0,0.,12.0,0.,12.0,0.,12.0
1979-07-04 06:52:30.320 ,7,1,0.,12.0,0.,12.0,0.,12.0,0.,12.0
1979-07-04 06:52:42.320 ,7,1,0.,12.0,0.,12.0,0.,12.0,0.,12.0
1979-07-04 06:52:54.310 ,3,1,0.,12.0,0.,12.0,0.,12.0,0.,12.0
1979-07-04 06:53:06.310 ,3,1,0.,12.0,0.,12.0,0.,12.0,0.,12.0
1979-07-04 06:53:18.310 ,0,1,0.,12.0,0.,12.0,0.,12.0,0.,12.0
1979-07-04 06:53:30.310 ,0,1,0.,12.0,0.,12.0,0.,12.0,0.,12.0
1979-07-04 06:53:42.310 ,0,0,0.,12.0,0.,12.0,0.,12.0,0.,12.0
1979-07-04 06:53:54.310 ,0,0,0.,12.0,0.,12.0,0.,12.0,0.,12.0
1979-07-04 06:54:06.310 ,0,0,0.,12.0,0.,12.0,0.,12.0,0.,12.0
1979-07-04 06:54:18.310 ,0,0,0.,12.0,0.,12.0,0.,12.0,0.,12.0
1979-07-04 06:54:30.310 ,5,0,0.,12.0,0.,12.0,0.,12.0,0.,12.0
1979-07-04 06:54:42.310 ,5,0,0.,12.0,0.,12.0,0.,12.0,0.,12.0
1979-07-04 06:54:54.310 ,5,0,0.,12.0,0.,12.0,0.,12.0,0.,12.0
1979-07-04 06:55:06.310 ,5,0,0.,12.0,0.,12.0,0.,12.0,0.,12.0
1979-07-04 06:55:18.310 ,4,0,0.,12.0,0.,12.0,0.,12.0,0.,12.0
1979-07-04 06:55:30.310 ,4,0,0.,12.0,0.,12.0,0.,12.0,0.,12.0
1979-07-04 06:55:42.310 ,4,0,0.,12.0,0.,12.0,0.,12.0,0.,12.0
1979-07-04 06:55:54.310 ,4,0,0.,12.0,0.,12.0,0.,12.0,0.,12.0
1979-07-04 06:56:06.310 ,3,0,0.,12.0,0.,12.0,0.,12.0,0.,12.0
1979-07-04 06:56:18.310 ,3,0,0.,12.0,0.,12.0,0.,12.0,0.,12.0
1979-07-04 06:56:30.310 ,3,0,0.,12.0,0.,12.0,0.,12.0,0.,12.0
1979-07-04 06:56:42.310 ,3,0,0.,12.0,0.,12.0,0.,12.0,0.,12.0
1979-07-04 06:56:54.310 ,2,0,0.,12.0,0.,12.0,0.,12.0,0.,12.0
1979-07-04 06:57:06.310 ,2,0,0.,12.0,0.,12.0,0.,12.0,0.,12.0
1979-07-04 06:57:18.310 ,2,0,0.,12.0,0.,12.0,0.,12.0,0.,12.0
1979-07-04 06:57:30.310 ,2,0,0.,12.0,0.,12.0,0.,12.0,0.,12.0
1979-07-04 06:57:42.310 ,1,0,0.,12.0,0.,12.0,0.,12.0,0.,12.0
1979-07-04 06:57:54.310 ,1,0,0.,12.0,0.,12.0,0.,12.0,0.,12.0
1979-07-04 06:58:06.310 ,1,0,0.,12.0,0.,12.0,0.,12.0,0.,12.0
1979-07-04 06:58:18.310 ,1,0,0.,12.0,0.,12.0,0.,12.0,0.,12.0
1979-07-04 06:58:30.310 ,0,0,0.,12.0,0.,12.0,0.,12.0,0.,12.0
1979-07-04 06:58:42.310 ,0,0,0.,12.0,0.,12.0,0.,12.0,0.,12.0
1979-07-04 06:58:54.310 ,0,0,0.,12.0,0.,12.0,0.,12.0,0.,12.0
1979-07-04 06:59:06.310 ,0,0,0.,12.0,0.,12.0,0.,12.0,0.,12.0
1979-07-04 06:59:18.310 ,0,0,0.,12.0,0.,12.0,0.,12.0,0.,12.0
1979-07-04 06:59:30.310 ,0,0,0.,12.0,0.,12.0,0.,12.0,0.,12.0
1979-07-04 06:59:42.310 ,0,0,0.,12.0,0.,12.0,0.,12.0,0.,12.0
1979-07-04 06:59:54.310 ,0,0,0.,12.0,0.,12.0,0.,12.0,0.,12.0
1979-07-04 07:00:06.310 ,1,0,0.,12.0,0.,12.0,0.,12.0,0.,12.0
1979-07-04 07:00:18.310 ,1,0,0.,12.0,0.,12.0,0.,12.0,0.,12.0
1979-07-04 07:00:30.320 ,1,0,0.,12.0,0.,12.0,0.,12.0,0.,12.0
1979-07-04 07:00:42.320 ,1,0,0.,12.0,0.,12.0,0.,12.0,0.,12.0
1979-07-04 07:00:54.320 ,2,0,0.,12.0,0.,12.0,0.,12.0,0.,12.0
1979-07-04 07:01:06.320 ,2,0,0.,12.0,0.,12.0,0.,12.0,0.,12.0
1979-07-04 07:01:18.320 ,2,0,0.,12.0,0.,12.0,0.,12.0,0.,12.0
1979-07-04 07:01:30.320 ,2,0,0.,12.0,0.,12.0,0.,12.0,0.,12.0
1979-07-04 07:01:42.320 ,3,0,0.,12.0,0.,12.0,0.,12.0,0.,12.0
1979-07-04 07:01:54.320 ,3,0,0.,12.0,0.,12.0,0.,12.0,0.,12.0
1979-07-04 07:02:06.320 ,3,0,0.,12.0,0.,12.0,0.,12.0,0.,12.0
1979-07-04 07:02:18.320 ,3,0,0.,12.0,0.,12.0,0.,12.0,0.,12.0
1979-07-04 07:02:30.320 ,4,0,0.,12.0,0.,12.0,0.,12.0,0.,12.0
1979-07-04 07:02:42.320 ,4,0,0.,12.0,0.,12.0,0.,12.0,0.,12.0
1979-07-04 07:02:54.320 ,4,0,0.,12.0,0.,12.0,0.,12.0,0.,12.0
1979-07-04 07:03:06.320 ,4,0,0.,12.0,0.,12.0,0.,12.0,0.,12.0
1979-07-04 07:03:18.320 ,5,0,0.,12.0,0.,12.0,0.,12.0,0.,12.0
1979-07-04 07:03:30.320 ,5,0,0.,12.0,0.,12.0,0.,12.0,0.,12.0
1979-07-04 07:03:42.320 ,5,0,0.,12.0,0.,12.0,0.,12.0,0.,12.0
1979-07-04 07:03:54.320 ,5,0,0.,12.0,0.,12.0,0.,12.0,0.,12.0
1979-07-04 07:04:06.320 ,6,0,0.,12.0,0.,12.0,0.,12.0,0.,12.0
1979-07-04 07:04:18.320 ,6,0,0.,12.0,0.,12.0,0.,12.0,0.,12.0
1979-07-04 07:04:30.320 ,6,0,0.,12.0,0.,12.0,0.,12.0,0.,12.0
1979-07-04 07:04:42.320 ,6,0,0.,12.0,0.,12.0,0.,12.0,0.,12.0
1979-07-04 07:04:54.320 ,7,0,0.,12.0,0.,12.0,0.,12.0,0.,12.0
1979-07-04 07:05:06.320 ,7,0,0.,12.0,0.,12.0,0.,12.0,0.,12.0
1979-07-04 07:05:18.320 ,7,0,0.,12.0,0.,12.0,0.,12.0,0.,12.0
1979-07-04 07:05:30.320 ,7,0,0.,12.0,0.,12.0,0.,12.0,0.,12.0
1979-07-04 07:05:42.320 ,7,0,0.,12.0,0.,12.0,0.,12.0,0.,12.0
1979-07-04 07:05:54.320 ,7,0,0.,12.0,0.,12.0,0.,12.0,0.,12.0
1979-07-04 07:06:06.320 ,7,0,0.,12.0,0.,12.0,0.,12.0,0.,12.0
1979-07-04 07:06:18.320 ,7,0,0.,12.0,0.,12.0,0.,12.0,0.,12.0
1979-07-04 07:06:30.320 ,6,0,0.,12.0,0.,12.0,0.,12.0,0.,12.0
1979-07-04 07:06:42.320 ,6,0,0.,12.0,0.,12.0,0.,12.0,0.,12.0
1979-07-04 07:06:54.320 ,6,0,0.,12.0,0.,12.0,0.,12.0,0.,12.0
1979-07-04 07:07:06.320 ,6,0,0.,12.0,0.,12.0,0.,12.0,0.,12.0
1979-07-04 07:07:18.320 ,5,0,0.,12.0,0.,12.0,0.,12.0,0.,12.0
1979-07-04 07:07:30.320 ,5,0,0.,12.0,0.,12.0,0.,12.0,0.,12.0
1979-07-04 07:07:42.320 ,5,0,0.,12.0,0.,12.0,0.,12.0,0.,12.0
1979-07-04 07:07:54.320 ,5,0,0.,12.0,0.,12.0,0.,12.0,0.,12.0
1979-07-04 07:08:06.320 ,4,0,0.,12.0,0.,12.0,0.,12.0,0.,12.0
1979-07-04 07:08:18.320 ,4,0,0.,12.0,0.,12.0,0.,12.0,0.,12.0
1979-07-04 07:08:30.320 ,4,0,0.,12.0,0.,12.0,0.,12.0,0.,12.0
1979-07-04 07:08:42.320 ,4,0,0.,12.0,0.,12.0,0.,12.0,0.,12.0
1979-07-04 07:08:54.320 ,3,0,0.,12.0,0.,12.0,0.,12.0,0.,12.0
1979-07-04 07:09:06.320 ,3,0,0.,12.0,0.,12.0,0.,12.0,0.,12.0
1979-07-04 07:09:18.320 ,3,0,0.,12.0,0.,12.0,0.,12.0,0.,12.0
1979-07-04 07:09:30.320 ,3,0,0.,12.0,0.,12.0,0.,12.0,0.,12.0
1979-07-04 07:09:42.320 ,2,0,0.,12.0,0.,12.0,0.,12.0,0.,12.0
1979-07-04 07:09:54.320 ,2,0,0.,12.0,0.,12.0,0.,12.0,0.,12.0
1979-07-04 07:10:06.320 ,2,0,0.,12.0,0.,12.0,0.,12.0,0.,12.0
1979-07-04 07:10:18.320 ,2,0,0.,12.0,0.,12.0,0.,12.0,0.,12.0
1979-07-04 07:10:30.320 ,1,0,0.,12.0,0.,12.0,0.,12.0,0.,12.0
1979-07-04 07:10:42.320 ,1,0,0.,12.0,0.,12.0,0.,12.0,0.,12.0
1979-07-04 07:10:54.320 ,1,0,0.,12.0,0.,12.0,0.,12.0,0.,12.0
1979-07-04 07:11:06.320 ,1,0,0.,12.0,0.,12.0,0.,12.0,0.,12.0
1979-07-04 07:11:18.320 ,0,0,1.,12.0,0.,12.0,0.,12.0,0.,12.0
1979-07-04 07:11:30.320 ,0,0,0.,12.0,0.,12.0,0.,12.0,0.,12.0
1979-07-04 07:11:42.320 ,0,0,0.,12.0,0.,12.0,0.,12.0,0.,12.0
1979-07-04 07:11:54.320 ,0,0,0.,12.0,0.,12.0,0.,12.0,0.,12.0
1979-07-04 07:12:06.320 ,0,0,0.,12.0,0.,12.0,0.,12.0,0.,12.0
1979-07-04 07:12:18.320 ,0,0,0.,12.0,0.,12.0,0.,12.0,0.,12.0
1979-07-04 07:12:30.320 ,0,0,0.,12.0,0.,12.0,0.,12.0,0.,12.0
1979-07-04 07:12:42.320 ,0,0,0.,12.0,0.,12.0,0.,12.0,0.,12.0
1979-07-04 07:12:54.320 ,1,0,0.,12.0,0.,12.0,0.,12.0,0.,12.0
1979-07-04 07:13:06.320 ,1,0,0.,12.0,0.,12.0,0.,12.0,0.,12.0
1979-07-04 07:13:18.320 ,1,0,0.,12.0,0.,12.0,0.,12.0,0.,12.0
1979-07-04 07:13:30.320 ,1,0,0.,12.0,0.,12.0,0.,12.0,0.,12.0
1979-07-04 07:13:42.320 ,2,0,0.,12.0,0.,12.0,0.,12.0,0.,12.0
1979-07-04 07:13:54.320 ,2,0,0.,12.0,0.,12.0,0.,12.0,0.,12.0
1979-07-04 07:14:06.320 ,2,0,0.,12.0,0.,12.0,0.,12.0,0.,12.0
1979-07-04 07:14:18.320 ,2,0,0.,12.0,0.,12.0,0.,12.0,0.,12.0
1979-07-04 07:14:30.320 ,3,0,1.,12.0,0.,12.0,0.,12.0,0.,12.0
1979-07-04 07:14:42.320 ,3,0,0.,12.0,0.,12.0,0.,12.0,0.,12.0
1979-07-04 07:14:54.320 ,3,0,0.,12.0,0.,12.0,0.,12.0,0.,12.0
1979-07-04 07:15:06.320 ,3,0,0.,12.0,0.,12.0,0.,12.0,0.,12.0
1979-07-04 07:15:18.310 ,4,0,0.,12.0,0.,12.0,0.,12.0,0.,12.0
1979-07-04 07:15:30.310 ,4,0,0.,12.0,0.,12.0,0.,12.0,0.,12.0
1979-07-04 07:15:42.310 ,4,0,0.,12.0,0.,12.0,0.,12.0,0.,12.0
1979-07-04 07:15:54.310 ,4,0,0.,12.0,0.,12.0,0.,12.0,0.,12.0
1979-07-04 07:16:06.310 ,5,0,0.,12.0,0.,12.0,0.,12.0,0.,12.0
1979-07-04 07:16:18.310 ,5,0,0.,12.0,0.,12.0,0.,12.0,0.,12.0
1979-07-04 07:16:30.310 ,5,0,0.,12.0,0.,12.0,0.,12.0,0.,12.0
1979-07-04 07:16:42.310 ,5,0,0.,12.0,0.,12.0,0.,12.0,0.,12.0
1979-07-04 07:16:54.310 ,6,0,0.,12.0,0.,12.0,0.,12.0,0.,12.0
1979-07-04 07:17:06.310 ,6,0,0.,12.0,0.,12.0,0.,12.0,0.,12.0
1979-07-04 07:17:18.310 ,6,0,0.,12.0,0.,12.0,0.,12.0,0.,12.0
1979-07-04 07:17:30.310 ,6,0,0.,12.0,0.,12.0,0.,12.0,0.,12.0